"2009-08-01 00:00:00",1111969,3.818,338.3,2.147,0.155,17.83,107.7643,19.15,20.26,37.03,0,110.7,13.26,19.97,300.3
"2009-08-01 00:00:30",1111970,3.126,335.1,2.949,0.226,17.76,107.7378,19.09,20.22,36.54,0,110.7,13.26,19.91,297.1
"2009-08-01 00:01:00",1111971,3.325,340.8,2.909,0.066,17.72,107.7339,19.08,20.19,36.42,0,110.7,13.26,19.90,302.8
"2009-08-01 00:01:30",1111972,3.689,339.6,4.314,0.187,17.67,107.7184,19.04,20.16,36.54,0,110.7,13.26,19.86,301.6
"2009-08-01 00:02:00",1111973,3.198,350.5,3.553,0.439,17.65,107.7021,19,20.13,36.76,0,110.7,13.26,19.81,312.5
"2009-08-01 00:02:30",1111974,2.783,351.9,2.184,0.26,17.56,107.7001,18.99,20.09,37.14,0,110.7,13.26,19.81,313.9
"2009-08-01 00:03:00",1111975,2.999,347.9,3.185,0.249,17.52,107.6984,18.99,20.07,37.27,0,110.7,13.26,19.80,309.9
"2009-08-01 00:03:30",1111976,3.014,336.3,2.536,0.106,17.54,107.6765,18.93,20.05,37.22,0,110.7,13.26,19.75,298.3
"2009-08-01 00:04:00",1111977,2.782,333.3,3.618,0.165,17.5,107.6663,18.9,20.04,37.15,0,110.7,13.26,19.72,295.3
"2009-08-01 00:04:30",1111978,2.738,335.6,2.135,0.138,17.46,107.6663,18.9,20.02,37.14,0,110.7,13.25,19.72,297.6
"2009-08-01 00:05:00",1111979,2.621,327.8,2.927,0.184,17.44,107.666,18.9,20,37.35,0,110.7,13.25,19.72,289.8
"2009-08-01 00:05:30",1111980,2.488,328.4,2.107,0.157,17.47,107.6568,18.88,19.98,37.59,0,110.7,13.25,19.70,290.4
"2009-08-01 00:06:00",1111981,2.684,330.2,2.631,0.115,17.34,107.6452,18.85,19.97,37.72,0,110.7,13.25,19.67,292.2
"2009-08-01 00:06:30",1111982,2.911,324.8,3.248,0.134,17.39,107.6328,18.82,19.94,37.65,0,110.7,13.25,19.64,286.8
"2009-08-01 00:07:00",1111983,2.986,319.1,2.793,0.096,17.41,107.6326,18.82,19.94,37.48,0,110.7,13.25,19.63,281.1
"2009-08-01 00:07:30",1111984,3.233,313.4,3.118,0.13,17.33,107.6326,18.82,19.92,37.81,0,110.7,13.25,19.63,275.4
"2009-08-01 00:08:00",1111985,3.33,300.3,3.938,0.316,17.1,107.623,18.79,19.91,40.14,0,110.7,13.25,19.61,262.3
"2009-08-01 00:08:30",1111986,2.941,292.6,8.41,0.299,17.06,107.6039,18.74,19.86,40.61,0,110.7,13.25,19.56,254.6
"2009-08-01 00:09:00",1111987,3.077,309,3.237,0.18,17.47,107.5988,18.73,19.84,39.97,0,110.7,13.25,19.55,271.0
"2009-08-01 00:09:30",1111988,3.056,308.5,2.198,0.174,17.32,107.5988,18.73,19.82,38.68,0,110.7,13.25,19.55,270.5
"2009-08-01 00:10:00",1111989,3.443,296.3,4.123,0.305,17.05,107.5988,18.73,19.82,39.89,0,110.7,13.26,19.55,258.3
"2009-08-01 00:10:30",1111990,3.833,298,5.13,0.374,17.15,107.5918,18.71,19.8,40.92,0,110.7,13.26,19.53,260.0
"2009-08-01 00:11:00",1111991,3.625,295.3,4.616,0.25,17.29,107.5704,18.66,19.79,40.79,0,110.7,13.26,19.47,257.3
"2009-08-01 00:11:30",1111992,3.314,301.2,2.506,0.216,17.42,107.565,18.64,19.77,39.59,0,110.7,13.26,19.46,263.2
"2009-08-01 00:12:00",1111993,3.116,305.5,2.931,0.235,17.53,107.5647,18.64,19.76,39.4,0,110.7,13.26,19.46,267.5
"2009-08-01 00:12:30",1111994,2.753,299.4,2.167,0.106,17.45,107.5447,18.59,19.73,38.85,0,110.7,13.26,19.41,261.4
"2009-08-01 00:13:00",1111995,2.903,299.6,2.232,0.172,17.26,107.5312,18.56,19.71,39.79,0,110.7,13.26,19.37,261.6
"2009-08-01 00:13:30",1111996,2.902,296.7,3.79,0.094,17.48,107.5312,18.56,19.7,39.54,0,110.7,13.26,19.37,258.7
"2009-08-01 00:14:00",1111997,2.994,294.9,1.337,0.058,17.47,107.5298,18.55,19.65,38.58,0,110.7,13.26,19.37,256.9
"2009-08-01 00:14:30",1111998,2.942,295.3,2.08,0.062,17.48,107.5079,18.5,19.63,38.5,0,110.7,13.26,19.31,257.3
"2009-08-01 00:15:00",1111999,3.072,294,1.416,0.147,17.46,107.4975,18.47,19.62,38.54,0,110.7,13.26,19.29,256.0
"2009-08-01 00:15:30",1112000,3.023,293.2,3.878,0.141,17.25,107.4975,18.47,19.6,38.79,0,110.7,13.26,19.29,255.2
"2009-08-01 00:16:00",1112001,3.33,293.1,2.169,0.243,17.27,107.4975,18.47,19.58,39.72,0,110.7,13.26,19.29,255.1
"2009-08-01 00:16:30",1112002,3.415,295.3,2.175,0.15,17.33,107.4975,18.47,19.56,39.29,0,110.7,13.26,19.29,257.3
"2009-08-01 00:17:00",1112003,3.939,288.6,3.611,0.296,17.2,107.4876,18.45,19.56,39.63,0,110.7,13.26,19.26,250.6
"2009-08-01 00:17:30",1112004,4.233,288.6,2.978,0.312,17.21,107.4713,18.4,19.53,40.15,0,110.7,13.26,19.22,250.6
"2009-08-01 00:18:00",1112005,4.434,283.4,1.799,0.138,17.2,107.4648,18.39,19.52,41.1,0,110.7,13.26,19.20,245.4
"2009-08-01 00:18:30",1112006,4.778,284.3,1.73,0.212,17.2,107.4637,18.38,19.51,41.37,0,110.7,13.26,19.20,246.3
"2009-08-01 00:19:00",1112007,4.72,284.7,1.522,0.216,17.25,107.4637,18.38,19.5,41.32,0,110.7,13.26,19.20,246.7
"2009-08-01 00:19:30",1112008,4.29,283,1.478,0.14,17.38,107.4502,18.35,19.46,40.8,0,110.7,13.26,19.17,245.0
"2009-08-01 00:20:00",1112009,3.943,280.1,1.856,0.112,17.44,107.4305,18.3,19.45,40.32,0,110.7,13.26,19.11,242.1
"2009-08-01 00:20:30",1112010,3.694,278.6,1.378,0.101,17.56,107.4299,18.3,19.42,40.04,0,110.7,13.26,19.11,240.6
"2009-08-01 00:21:00",1112011,3.823,275.4,1.518,0.156,17.48,107.4285,18.29,19.41,40.19,0,110.7,13.26,19.11,237.4
"2009-08-01 00:21:30",1112012,3.664,276.8,0.856,0.115,17.62,107.4142,18.26,19.39,39.94,0,110.7,13.26,19.07,238.8
"2009-08-01 00:22:00",1112013,3.748,274.5,2.005,0.151,17.53,107.4004,18.22,19.36,39.87,0,110.7,13.26,19.04,236.5
"2009-08-01 00:22:30",1112014,4.229,271.7,1.49,0.193,17.43,107.3964,18.21,19.35,40.39,0,110.7,13.25,19.03,233.7
"2009-08-01 00:23:00",1112015,4.12,272.9,1.451,0.153,17.45,107.3961,18.21,19.32,40.47,0,110.7,13.25,19.03,234.9
"2009-08-01 00:23:30",1112016,3.871,276.4,1.723,0.206,17.67,107.3961,18.21,19.3,40.35,0,110.7,13.25,19.03,238.4
"2009-08-01 00:24:00",1112017,3.728,277,1.249,0.094,17.75,107.3939,18.21,19.3,39.87,0,110.7,13.25,19.02,239.0
"2009-08-01 00:24:30",1112018,3.809,274.4,1.745,0.122,17.67,107.384,18.18,19.28,39.61,0,110.7,13.25,19.00,236.4
"2009-08-01 00:25:00",1112019,4.406,274.1,2.37,0.406,17.6,107.3756,18.16,19.27,40.26,0,110.7,13.25,18.97,236.1
"2009-08-01 00:25:30",1112020,4.782,273.3,2.369,0.22,17.49,107.3646,18.13,19.24,41.35,0,110.7,13.25,18.95,235.3
"2009-08-01 00:26:00",1112021,5.381,275.2,1.658,0.165,17.37,107.3624,18.12,19.24,42.18,0,110.7,13.26,18.94,237.2
"2009-08-01 00:26:30",1112022,5.449,275.3,1.958,0.154,17.4,107.3624,18.12,19.24,42.94,0,110.7,13.26,18.94,237.3
"2009-08-01 00:27:00",1112023,5.34,271.8,1.732,0.203,17.43,107.3624,18.12,19.22,42.97,0,110.7,13.26,18.94,233.8
"2009-08-01 00:27:30",1112024,5.404,273.1,2.15,0.396,17.54,107.359,18.12,19.2,42.4,0,110.7,13.26,18.93,235.1
"2009-08-01 00:28:00",1112025,5.909,272.3,1.342,0.209,17.43,107.3387,18.06,19.18,42.93,0,110.7,13.26,18.88,234.3
"2009-08-01 00:28:30",1112026,6.006,269.1,1.387,0.171,17.3,107.3292,18.04,19.18,42.99,0,110.7,13.26,18.85,231.1
"2009-08-01 00:29:00",1112027,5.512,271.4,1.403,0.28,17.42,107.3289,18.04,19.16,42.76,0,110.7,13.26,18.85,233.4
"2009-08-01 00:29:30",1112028,4.941,271.5,5.207,0.34,18.01,107.3292,18.04,19.14,41.05,0,110.7,13.26,18.85,233.5
"2009-08-01 00:30:00",1112029,4.721,268.8,2.677,0.185,17.86,107.3268,18.03,19.11,40.32,0,110.7,13.26,18.85,230.8
"2009-08-01 00:30:30",1112030,5.134,268.4,2.164,0.262,18.4,107.3053,17.98,19.08,39.22,0,110.7,13.26,18.79,230.4
"2009-08-01 00:31:00",1112031,4.742,263.9,3.252,0.538,19.17,107.3032,17.97,19.08,37.68,0,110.7,13.26,18.79,225.9
"2009-08-01 00:31:30",1112032,4.306,264.7,1.882,0.238,19.22,107.309,17.99,19.05,36.23,0,110.7,13.26,18.80,226.7
"2009-08-01 00:32:00",1112033,4.527,266.6,1.467,0.168,19.06,107.3277,18.04,19.06,36.32,0,110.7,13.26,18.85,228.6
"2009-08-01 00:32:30",1112034,5.34,270.6,2.35,0.487,18.73,107.3334,18.05,19.05,36.54,0,110.7,13.26,18.87,232.6
"2009-08-01 00:33:00",1112035,5.84,269.8,2.072,0.189,18.57,107.3349,18.05,19.06,37.05,0,110.7,13.26,18.87,231.8
"2009-08-01 00:33:30",1112036,5.44,270,1.49,0.142,18.63,107.3522,18.1,19.07,36.72,0,110.7,13.26,18.91,232.0
"2009-08-01 00:34:00",1112037,5.033,269.2,1.447,0.129,18.49,107.3717,18.15,19.09,36.54,0,110.7,13.26,18.96,231.2
"2009-08-01 00:34:30",1112038,4.674,261.1,3.741,0.234,18.3,107.3839,18.18,19.12,36.72,0,110.7,13.26,18.99,223.1
"2009-08-01 00:35:00",1112039,4.649,261.3,2.183,0.13,18.41,107.4045,18.23,19.15,36.61,0,110.7,13.26,19.05,223.3
"2009-08-01 00:35:30",1112040,4.319,258.4,2.356,0.175,18.28,107.4085,18.24,19.15,36.53,0,110.7,13.26,19.06,220.4
"2009-08-01 00:36:00",1112041,4.49,253.2,2.181,0.15,18.38,107.4328,18.3,19.19,36.37,0,110.7,13.26,19.12,215.2
"2009-08-01 00:36:30",1112042,4.337,250.2,2.523,0.292,18.36,107.4411,18.33,19.23,36.14,0,110.7,13.27,19.14,212.2
"2009-08-01 00:37:00",1112043,4.039,249.7,1.013,0.232,18.34,107.457,18.37,19.26,36.08,0,110.7,13.26,19.18,211.7
"2009-08-01 00:37:30",1112044,4.493,249.4,0.844,0.097,18.33,107.4774,18.42,19.28,35.95,0,110.7,13.27,19.24,211.4
"2009-08-01 00:38:00",1112045,5,249,1.789,0.32,18.29,107.4806,18.43,19.32,35.81,0,110.7,13.26,19.24,211.0
"2009-08-01 00:38:30",1112046,5.276,248.2,0.838,0.08,18.21,107.5061,18.49,19.36,35.96,0,110.7,13.26,19.31,210.2
"2009-08-01 00:39:00",1112047,5.28,245.8,1.91,0.113,18.15,107.5162,18.52,19.39,35.88,0,110.7,13.26,19.34,207.8
"2009-08-01 00:39:30",1112048,5.805,246.5,1.68,0.264,18.25,107.5186,18.52,19.41,36.03,0,110.7,13.26,19.34,208.5
"2009-08-01 00:40:00",1112049,5.783,244.2,1.855,0.145,18.37,107.5443,18.59,19.46,35.75,0,110.7,13.26,19.41,206.2
"2009-08-01 00:40:30",1112050,6.127,245.5,0.607,0.138,18.39,107.5488,18.6,19.48,35.63,0,110.7,13.26,19.42,207.5
"2009-08-01 00:41:00",1112051,6.49,247,0.775,0.13,18.17,107.5517,18.61,19.5,36.21,0,110.7,13.26,19.43,209.0
"2009-08-01 00:41:30",1112052,6.321,246.9,0.858,0.112,18.22,107.5736,18.67,19.53,36.14,0,110.7,13.26,19.48,208.9
"2009-08-01 00:42:00",1112053,6.576,248,1.566,0.203,18.19,107.5859,18.7,19.57,36.18,0,110.7,13.26,19.51,210.0
"2009-08-01 00:42:30",1112054,6.975,245.9,0.983,0.105,18.12,107.5838,18.69,19.59,36.13,0,110.7,13.26,19.51,207.9
"2009-08-01 00:43:00",1112055,6.986,246,1.022,0.079,17.93,107.5947,18.72,19.62,36.26,0,110.7,13.26,19.54,208.0
"2009-08-01 00:43:30",1112056,7.259,244.3,2.767,0.196,18.06,107.6115,18.76,19.63,36.1,0,110.7,13.26,19.58,206.3
"2009-08-01 00:44:00",1112057,7.554,242,1.745,0.198,17.99,107.621,18.79,19.65,36.41,0,110.7,13.26,19.61,204.0
"2009-08-01 00:44:30",1112058,7.963,244.5,1.04,0.065,17.99,107.6215,18.79,19.69,36.42,0,110.7,13.26,19.61,206.5
"2009-08-01 00:45:00",1112059,7.836,245.4,1.475,0.195,18.09,107.6251,18.8,19.69,36.28,0,110.7,13.27,19.62,207.4
"2009-08-01 00:45:30",1112060,8.04,247.3,1.421,0.281,18.1,107.6227,18.79,19.7,36.28,0,110.7,13.27,19.61,209.3
"2009-08-01 00:46:00",1112061,8.18,247.3,0.955,0.106,18.13,107.626,18.8,19.71,36.22,0,110.7,13.27,19.62,209.3
"2009-08-01 00:46:30",1112062,8.17,246.1,1.088,0.102,18.16,107.6254,18.8,19.72,36.07,0,110.7,13.27,19.62,208.1
"2009-08-01 00:47:00",1112063,8.14,243.4,1.944,0.242,18.14,107.6288,18.81,19.72,35.91,0,110.7,13.27,19.63,205.4
"2009-08-01 00:47:30",1112064,7.876,243.4,1.857,0.25,18.17,107.6291,18.81,19.72,35.71,0,110.7,13.27,19.63,205.4
"2009-08-01 00:48:00",1112065,7.751,240.3,1.837,0.292,18.29,107.6291,18.81,19.72,35.56,0,110.7,13.27,19.63,202.3
"2009-08-01 00:48:30",1112066,7.557,239.1,2.612,0.249,18.34,107.6309,18.81,19.73,35.45,0,110.7,13.27,19.63,201.1
"2009-08-01 00:49:00",1112067,7.219,236.8,1.02,0.103,18.35,107.6327,18.82,19.74,35.34,0,110.7,13.27,19.64,198.8
"2009-08-01 00:49:30",1112068,6.983,237.9,1.32,0.084,18.33,107.6327,18.82,19.73,35.28,0,110.7,13.27,19.64,199.9
"2009-08-01 00:50:00",1112069,6.985,239,1.234,0.093,18.33,107.633,18.82,19.72,35.17,0,110.7,13.27,19.64,201.0
"2009-08-01 00:50:30",1112070,7.103,237.5,1.467,0.114,18.33,107.6321,18.82,19.73,35.1,0,110.7,13.27,19.63,199.5
"2009-08-01 00:51:00",1112071,7.124,238,1.605,0.126,18.32,107.6336,18.82,19.75,35.05,0,110.7,13.27,19.64,200.0
"2009-08-01 00:51:30",1112072,7.125,240.8,0.778,0.108,18.21,107.6342,18.82,19.74,35.05,0,110.7,13.27,19.64,202.8
"2009-08-01 00:52:00",1112073,7.027,240.1,0.529,0.12,18.22,107.6342,18.82,19.73,35.05,0,110.7,13.27,19.64,202.1
"2009-08-01 00:52:30",1112074,7.248,242.1,0.856,0.095,18.12,107.6333,18.82,19.76,35.23,0,110.7,13.27,19.64,204.1
"2009-08-01 00:53:00",1112075,7.172,241.3,0.893,0.096,18.17,107.6339,18.82,19.76,35.17,0,110.7,13.27,19.64,203.3
"2009-08-01 00:53:30",1112076,6.986,240.2,0.418,0.062,18.3,107.6324,18.82,19.77,35.04,0,110.7,13.27,19.63,202.2
"2009-08-01 00:54:00",1112077,7.085,239.7,0.883,0.064,18.17,107.6339,18.82,19.78,35.19,0,110.7,13.27,19.64,201.7
"2009-08-01 00:54:30",1112078,7.052,239.6,0.562,0.084,18.14,107.6345,18.82,19.78,35.37,0,110.7,13.27,19.64,201.6
"2009-08-01 00:55:00",1112079,6.929,239.1,0.668,0.078,18.13,107.6351,18.82,19.78,35.4,0,110.7,13.26,19.64,201.1
"2009-08-01 00:55:30",1112080,6.789,239.6,0.409,0.063,18.02,107.6357,18.83,19.8,35.38,0,110.7,13.26,19.64,201.6
"2009-08-01 00:56:00",1112081,6.748,238.8,0.823,0.081,18.05,107.6354,18.82,19.78,35.35,0,110.7,13.26,19.64,200.8
"2009-08-01 00:56:30",1112082,6.55,237.4,1.732,0.204,18.1,107.636,18.83,19.78,35.32,0,110.7,13.26,19.64,199.4
"2009-08-01 00:57:00",1112083,6.117,231.8,2.178,0.234,18.39,107.6348,18.82,19.79,35.01,0,110.7,13.26,19.64,193.8
"2009-08-01 00:57:30",1112084,6.099,232.5,0.836,0.053,18.28,107.6351,18.82,19.79,34.97,0,110.7,13.26,19.64,194.5
"2009-08-01 00:58:00",1112085,5.968,228.6,0.592,0.053,18.42,107.6357,18.83,19.79,34.91,0,110.7,13.26,19.64,190.6
"2009-08-01 00:58:30",1112086,5.835,228.4,0.431,0.062,18.35,107.6354,18.82,19.79,34.82,0,110.7,13.26,19.64,190.4
"2009-08-01 00:59:00",1112087,5.673,227.9,0.89,0.058,18.34,107.6365,18.83,19.8,34.87,0,110.7,13.26,19.64,189.9
"2009-08-01 00:59:30",1112088,5.447,226.6,0.452,0.136,18.42,107.6394,18.83,19.8,34.72,0,110.7,13.26,19.65,188.6
"2009-08-01 01:00:00",1112089,5.109,226.4,1.072,0.135,18.37,107.6447,18.85,19.8,34.57,0,110.7,13.26,19.67,188.4
"2009-08-01 01:00:30",1112090,4.671,227.3,0.512,0.066,18.64,107.6529,18.87,19.8,34.41,0,110.7,13.27,19.69,189.3
"2009-08-01 01:01:00",1112091,4.463,226.2,0.449,0.118,18.61,107.6616,18.89,19.82,34.35,0,110.7,13.27,19.71,188.2
"2009-08-01 01:01:30",1112092,4.421,225.6,0.791,0.184,18.54,107.667,18.91,19.81,34.28,0,110.7,13.27,19.72,187.6
"2009-08-01 01:02:00",1112093,4.761,223.8,1.217,0.142,18.42,107.6689,18.91,19.81,34.32,0,110.7,13.27,19.73,185.8
"2009-08-01 01:02:30",1112094,4.592,222.1,1.002,0.094,18.53,107.6689,18.91,19.84,34.23,0,110.7,13.27,19.73,184.1
"2009-08-01 01:03:00",1112095,4.476,220.9,0.595,0.069,18.66,107.6689,18.91,19.84,34.09,0,110.7,13.27,19.73,182.9
"2009-08-01 01:03:30",1112096,4.554,221.4,0.825,0.108,18.47,107.6689,18.91,19.86,34.05,0,110.7,13.27,19.73,183.4
"2009-08-01 01:04:00",1112097,4.635,219.9,1.177,0.095,18.65,107.6703,18.91,19.87,34.09,0,110.7,13.27,19.73,181.9
"2009-08-01 01:04:30",1112098,4.434,218.6,0.483,0.06,18.71,107.6861,18.95,19.88,33.97,0,110.7,13.27,19.77,180.6
"2009-08-01 01:05:00",1112099,4.438,218.3,0.734,0.063,18.66,107.6962,18.98,19.88,33.9,0,110.7,13.27,19.80,180.3
"2009-08-01 01:05:30",1112100,4.637,216.2,0.842,0.034,18.29,107.7013,18.99,19.9,33.92,0,110.7,13.27,19.81,178.2
"2009-08-01 01:06:00",1112101,4.857,214.7,0.827,0.141,18.32,107.7027,19,19.91,33.96,0,110.7,13.27,19.82,176.7
"2009-08-01 01:06:30",1112102,4.894,214.1,0.742,0.117,18.37,107.7027,19,19.93,33.94,0,110.7,13.27,19.82,176.1
"2009-08-01 01:07:00",1112103,4.625,213.5,0.489,0.1,18.31,107.7027,19,19.94,33.9,0,110.7,13.27,19.82,175.5
"2009-08-01 01:07:30",1112104,4.702,212.8,0.619,0.047,18.41,107.7055,19,19.96,33.8,0,110.7,13.27,19.82,174.8
"2009-08-01 01:08:00",1112105,4.734,211.7,0.652,0.069,18.43,107.7196,19.04,19.96,33.79,0,110.7,13.27,19.86,173.7
"2009-08-01 01:08:30",1112106,4.746,211.7,0.522,0.064,18.45,107.7325,19.07,19.98,33.77,0,110.7,13.27,19.89,173.7
"2009-08-01 01:09:00",1112107,4.715,210.5,0.713,0.051,18.47,107.7365,19.08,20.01,33.72,0,110.7,13.27,19.90,172.5
"2009-08-01 01:09:30",1112108,4.767,209.2,1.229,0.084,18.48,107.7365,19.08,20.02,33.66,0,110.7,13.27,19.90,171.2
"2009-08-01 01:10:00",1112109,4.69,207.3,0.823,0.08,18.47,107.7365,19.08,20.04,33.63,0,110.7,13.27,19.90,169.3
"2009-08-01 01:10:30",1112110,4.822,207.4,1.648,0.151,18.37,107.7379,19.09,20.05,33.57,0,110.7,13.27,19.91,169.4
"2009-08-01 01:11:00",1112111,4.619,205.2,0.86,0.126,18.52,107.7452,19.11,20.07,33.52,0,110.7,13.27,19.92,167.2
"2009-08-01 01:11:30",1112112,4.837,205.9,1.344,0.138,18.27,107.7607,19.15,20.08,33.5,0,110.7,13.27,19.96,167.9
"2009-08-01 01:12:00",1112113,4.904,206.1,1.665,0.154,18.24,107.7697,19.17,20.09,33.43,0,110.7,13.26,19.99,168.1
"2009-08-01 01:12:30",1112114,5.004,207.7,0.927,0.098,18.31,107.7703,19.17,20.11,33.37,0,110.7,13.27,19.99,169.7
"2009-08-01 01:13:00",1112115,4.779,208.1,1.088,0.104,18.41,107.7703,19.17,20.12,33.32,0,110.7,13.26,19.99,170.1
"2009-08-01 01:13:30",1112116,4.694,210.1,0.897,0.06,18.38,107.7703,19.17,20.13,33.28,0,110.7,13.26,19.99,172.1
"2009-08-01 01:14:00",1112117,4.602,209.9,1.372,0.076,18.37,107.7838,19.2,20.15,33.24,0,110.7,13.26,20.02,171.9
"2009-08-01 01:14:30",1112118,4.637,210.7,1.189,0.094,18.28,107.7967,19.24,20.16,33.2,0,110.7,13.26,20.06,172.7
"2009-08-01 01:15:00",1112119,4.806,213.9,0.968,0.097,18.21,107.8032,19.25,20.18,33.15,0,110.7,13.26,20.07,175.9
"2009-08-01 01:15:30",1112120,4.779,217.1,1.349,0.139,18.3,107.8034,19.26,20.19,33.07,0,110.7,13.26,20.07,179.1
"2009-08-01 01:16:00",1112121,4.713,217.1,1.557,0.073,18.35,107.8041,19.26,20.19,33.03,0,110.7,13.26,20.08,179.1
"2009-08-01 01:16:30",1112122,4.568,217.3,0.783,0.047,18.32,107.8041,19.26,20.21,33,0,110.7,13.26,20.08,179.3
"2009-08-01 01:17:00",1112123,4.626,216.4,1.098,0.074,18.34,107.8034,19.26,20.22,32.96,0,110.7,13.26,20.07,178.4
"2009-08-01 01:17:30",1112124,4.533,217.4,0.505,0.078,18.32,107.8096,19.27,20.22,32.92,0,110.7,13.27,20.09,179.4
"2009-08-01 01:18:00",1112125,4.405,216.5,0.648,0.049,18.28,107.8223,19.3,20.25,32.9,0,110.7,13.27,20.12,178.5
"2009-08-01 01:18:30",1112126,4.273,216.2,1.189,0.096,18.32,107.8324,19.33,20.25,32.87,0,110.7,13.27,20.15,178.2
"2009-08-01 01:19:00",1112127,4.013,216.3,1.088,0.091,18.21,107.8363,19.34,20.26,32.84,0,110.7,13.27,20.16,178.3
"2009-08-01 01:19:30",1112128,3.918,217.8,1.545,0.173,18.45,107.8354,19.34,20.27,32.82,0,110.7,13.27,20.16,179.8
"2009-08-01 01:20:00",1112129,3.666,214.8,0.889,0.113,18.57,107.8354,19.34,20.29,32.74,0,110.7,13.27,20.16,176.8
"2009-08-01 01:20:30",1112130,3.565,213.4,1.017,0.143,18.66,107.8327,19.33,20.28,32.7,0,110.7,13.27,20.15,175.4
"2009-08-01 01:21:00",1112131,3.37,212.7,1.036,0.14,18.64,107.8339,19.33,20.3,32.54,0,110.7,13.27,20.15,174.7
"2009-08-01 01:21:30",1112132,3.143,211,2.579,0.233,18.61,107.8365,19.34,20.31,32.53,0,110.7,13.27,20.16,173.0
"2009-08-01 01:22:00",1112133,3.425,210.4,1.588,0.188,18.6,107.8506,19.38,20.31,32.37,0,110.7,13.27,20.20,172.4
"2009-08-01 01:22:30",1112134,3.379,209.8,2.957,0.087,18.6,107.86,19.4,20.33,32.44,0,110.7,13.27,20.22,171.8
"2009-08-01 01:23:00",1112135,3.443,213.4,0.81,0.069,18.58,107.8628,19.41,20.34,32.49,0,110.7,13.27,20.23,175.4
"2009-08-01 01:23:30",1112136,3.645,213.1,1.084,0.081,18.57,107.8622,19.41,20.34,32.51,0,110.7,13.27,20.23,175.1
"2009-08-01 01:24:00",1112137,3.769,212.1,0.922,0.078,18.34,107.8622,19.41,20.35,32.47,0,110.7,13.27,20.23,174.1
"2009-08-01 01:24:30",1112138,3.982,211.9,0.996,0.052,18.19,107.8598,19.4,20.36,32.44,0,110.7,13.27,20.22,173.9
"2009-08-01 01:25:00",1112139,4.094,213.1,1.004,0.037,18.17,107.8592,19.4,20.37,32.43,0,110.7,13.27,20.22,175.1
"2009-08-01 01:25:30",1112140,4.112,219,1.863,0.065,18.31,107.8595,19.4,20.39,32.41,0,110.7,13.27,20.22,181.0
"2009-08-01 01:26:00",1112141,4.252,223.2,1.04,0.041,18.29,107.8677,19.42,20.39,32.37,0,110.7,13.27,20.24,185.2
"2009-08-01 01:26:30",1112142,4.308,229.2,1.867,0.038,18.2,107.8794,19.45,20.42,32.41,0,110.7,13.27,20.27,191.2
"2009-08-01 01:27:00",1112143,4.383,232.6,0.535,0.066,18.09,107.8859,19.47,20.41,32.46,0,110.7,13.27,20.29,194.6
"2009-08-01 01:27:30",1112144,4.363,232.6,0.544,0.052,18.05,107.8918,19.48,20.41,32.61,0,110.7,13.27,20.30,194.6
"2009-08-01 01:28:00",1112145,4.262,235.3,1.646,0.043,18.14,107.8908,19.48,20.43,32.53,0,110.7,13.27,20.30,197.3
"2009-08-01 01:28:30",1112146,4.226,237.6,0.487,0.041,18.33,107.8906,19.48,20.43,32.46,0,110.7,13.26,20.30,199.6
"2009-08-01 01:29:00",1112147,4.038,238.4,1.103,0.145,18.31,107.89,19.48,20.44,32.4,0,110.7,13.26,20.30,200.4
"2009-08-01 01:29:30",1112148,3.7,238.6,0.743,0.066,18.19,107.89,19.48,20.45,32.22,0,110.7,13.26,20.30,200.6
"2009-08-01 01:30:00",1112149,3.604,239.2,0.726,0.044,18.2,107.8897,19.48,20.44,32.15,0,110.7,13.26,20.30,201.2
"2009-08-01 01:30:30",1112150,3.507,239.5,0.337,0.042,18.32,107.8862,19.47,20.43,32.12,0,110.7,13.26,20.29,201.5
"2009-08-01 01:31:00",1112151,3.496,240.5,0.895,0.044,18.33,107.8859,19.47,20.43,32.07,0,110.7,13.26,20.29,202.5
"2009-08-01 01:31:30",1112152,3.612,241.8,0.652,0.06,18.28,107.8825,19.46,20.42,32.14,0,110.7,13.26,20.28,203.8
"2009-08-01 01:32:00",1112153,3.662,242.3,0.192,0.044,18.31,107.8774,19.45,20.43,32.22,0,110.7,13.26,20.27,204.3
"2009-08-01 01:32:30",1112154,3.822,242.5,0.535,0.109,18.37,107.8711,19.43,20.43,32.25,0,110.7,13.26,20.25,204.5
"2009-08-01 01:33:00",1112155,4.202,241.8,0.891,0.112,18.08,107.8642,19.41,20.43,32.34,0,110.7,13.26,20.23,203.8
"2009-08-01 01:33:30",1112156,4.326,241.2,0.269,0.047,18.13,107.8541,19.39,20.43,32.39,0,110.7,13.26,20.21,203.2
"2009-08-01 01:34:00",1112157,4.242,242.8,0.707,0.035,18.09,107.8519,19.38,20.41,32.39,0,110.7,13.26,20.20,204.8
"2009-08-01 01:34:30",1112158,4.274,244.6,0.89,0.035,18.19,107.8516,19.38,20.42,32.42,0,110.7,13.26,20.20,206.6
"2009-08-01 01:35:00",1112159,4.384,248.7,1.432,0.094,18.23,107.8549,19.39,20.42,32.46,0,110.7,13.27,20.21,210.7
"2009-08-01 01:35:30",1112160,4.623,250.1,0.588,0.055,18.21,107.8519,19.38,20.41,32.5,0,110.7,13.27,20.20,212.1
"2009-08-01 01:36:00",1112161,4.836,250.4,1.007,0.137,18.16,107.8528,19.38,20.41,32.48,0,110.7,13.27,20.20,212.4
"2009-08-01 01:36:30",1112162,4.925,255.9,1.359,0.084,18.02,107.8492,19.37,20.4,32.6,0,110.7,13.27,20.19,217.9
"2009-08-01 01:37:00",1112163,5.158,257.8,0.578,0.185,18,107.8496,19.37,20.39,32.7,0,110.7,13.27,20.19,219.8
"2009-08-01 01:37:30",1112164,5.366,259.7,0.907,0.123,18.12,107.8376,19.34,20.37,32.91,0,110.7,13.27,20.16,221.7
"2009-08-01 01:38:00",1112165,5.271,262.6,1.218,0.064,18.08,107.8192,19.3,20.36,33.05,0,110.7,13.27,20.12,224.6
"2009-08-01 01:38:30",1112166,5.512,265.3,1.237,0.154,18.13,107.8193,19.3,20.35,33.06,0,110.7,13.27,20.12,227.3
"2009-08-01 01:39:00",1112167,5.549,267.2,1.024,0.059,18.21,107.8178,19.29,20.33,33.02,0,110.7,13.27,20.11,229.2
"2009-08-01 01:39:30",1112168,5.598,269.6,0.697,0.064,18.12,107.8184,19.29,20.33,32.96,0,110.7,13.27,20.11,231.6
"2009-08-01 01:40:00",1112169,5.685,270.5,0.619,0.065,18.08,107.7904,19.22,20.3,33.06,0,110.7,13.27,20.04,232.5
"2009-08-01 01:40:30",1112170,5.482,272.6,0.589,0.062,18.3,107.7886,19.22,20.28,32.96,0,110.7,13.27,20.04,234.6
"2009-08-01 01:41:00",1112171,5.225,273.4,0.479,0.126,18.26,107.7895,19.22,20.27,32.88,0,110.7,13.27,20.04,235.4
"2009-08-01 01:41:30",1112172,4.954,273.7,0.53,0.097,18.29,107.7831,19.2,20.24,32.84,0,110.7,13.27,20.02,235.7
"2009-08-01 01:42:00",1112173,4.532,274.7,1.092,0.14,18.4,107.7601,19.14,20.23,32.91,0,110.7,13.27,19.96,236.7
"2009-08-01 01:42:30",1112174,4.102,277.5,1.06,0.122,18.55,107.7581,19.14,20.2,32.84,0,110.7,13.27,19.96,239.5
"2009-08-01 01:43:00",1112175,3.713,286.6,4.185,0.153,18.63,107.7584,19.14,20.19,32.64,0,110.7,13.27,19.96,248.6
"2009-08-01 01:43:30",1112176,3.072,296,1.303,0.189,18.98,107.7597,19.14,20.16,32.35,0,110.7,13.27,19.96,258.0
"2009-08-01 01:44:00",1112177,2.739,298.3,2.283,0.098,18.85,107.7507,19.12,20.15,32.19,0,110.7,13.27,19.94,260.3
"2009-08-01 01:44:30",1112178,2.693,299.5,3.314,0.09,18.86,107.7368,19.08,20.13,32.14,0,110.7,13.27,19.90,261.5
"2009-08-01 01:45:00",1112179,2.662,304.4,1.837,0.136,18.8,107.7352,19.08,20.12,32.06,0,110.7,13.27,19.90,266.4
"2009-08-01 01:45:30",1112180,2.615,306.3,1.96,0.136,18.69,107.7344,19.08,20.11,32.1,0,110.7,13.27,19.90,268.3
"2009-08-01 01:46:00",1112181,2.49,303.2,2.572,0.101,18.8,107.7331,19.08,20.11,32.12,0,110.7,13.26,19.89,265.2
"2009-08-01 01:46:30",1112182,2.568,307.6,2.805,0.151,18.77,107.7317,19.07,20.11,32.12,0,110.7,13.26,19.89,269.6